Regional Weather Roundup
Issued by NWS

Home | Current Version | Previous Version | Graphics & Text | Print | Product List | Glossary On
Versions: 1 2 3 4 5 6 7 8 9 10 11 12 13 14 15 16 17 18 19 20 21 22 23 24 25 26 27 28 29 30 31 32 33 34 35 36 37 38 39 40 41 42 43 44 45 46 47 48 49 50
000
ASUS45 KTFX 261104
RWRMT
MONTANA HOURLY WEATHER ROUNDUP
NATIONAL WEATHER SERVICE GREAT FALLS MT
404 AM MST WED NOV 26 2014

NOTE: "FAIR" INDICATES FEW OR NO CLOUDS BELOW 12000 FEET WITH NO
SIGNIFICANT WEATHER AND/OR OBSTRUCTIONS TO VISIBILITY.

* THESE STATIONS ARE NOT UNDER NWS QUALITY CONTROL. THEY DO NOT
   REPORT WEATHER SUCH AS PRECIPITATION OR FOG.

MTZ001>007-043-261200-
WEST OF THE DIVIDE
CITY           SKY/WX    TMP DP  RH WIND       PRES   REMARKS
KALISPELL      LGT SNOW  30  30 100 CALM      30.16S VSB 3/4
MISSOULA       LGT SNOW  30  30 100 CALM      30.14F VSB 1
BUTTE          LGT SNOW  27  25  92 CALM      30.06F VSB 2 1/2
MULLAN PASS    LGT SNOW  34  30  85 VRB7G20   30.06S VSB 1/2  WCI  28
* ESSEX        N/A       29  28  96 N/A        N/A
* LINCOLN      N/A       28  27  96 NE2        N/A
* LOOKOUT PASS N/A       33  33 100 N6         N/A   WCI  27
* POLSON       N/A       30  30 100 N/A        N/A
* RONAN APT    CLOUDY    32  30  92 N/A        N/A
* SEELEY LAKE  N/A       29  28  96 N/A        N/A
* THOMP F APT  CLOUDY    30  29  96 N2G7       N/A
* YAAK HILL    N/A       32  30  92 N/A        N/A
$$

MTZ008-052>055-261200-
SOUTHWEST MONTANA
CITY           SKY/WX    TMP DP  RH WIND       PRES   REMARKS
BOZEMAN        LGT SNOW  28  27  96 CALM      30.11S VSB 1 1/2
DILLON         FOG       27  27 100 NE6       30.06F VSB 1 1/2 WCI  20
* W YELLOWSTON MOCLDY    33  31  92 SW7G18     N/A   WCI  27
* ENNIS APT    MOCLDY    30  28  92 N/A        N/A
* THREE FORKS  CLOUDY    30   9  41 N/A        N/A
* BOULDER HILL N/A       26  23  88 S6         N/A   WCI  19
* MONIDA PASS  N/A       33  28  82 VRB1G9     N/A
* RAYNOLDS PAS N/A       38  33  82 SW10G15    N/A   WCI  31
* WHITEHALL    N/A       29  28  96 E3         N/A
* WISE RIVER   N/A       28  27  96 SE3        N/A
$$

MTZ009>010-012-014-046-048-049-054-261200-
EAST SLOPES AND CENTRAL MONTANA
CITY           SKY/WX    TMP DP  RH WIND       PRES   REMARKS
CUT BANK       LGT SNOW  27  27 100 SE3       30.12S VSB 2
GREAT FALLS    LGT SNOW  28  28 100 CALM      30.13S VSB 1 3/4
HELENA         LGT SNOW  30  28  92 CALM      30.13R VSB 1 1/2
MALMSTROM AFB  LGT SNOW  28  28 100 S3        30.16S VSB 2 1/2
* DEARBORN     N/A       31  30  96 S1         N/A
* EAST GLACIER N/A       24  23  96 W1         N/A
* MONARCH      N/A       23  20  88 S6         N/A   WCI  16
* PENDROY      N/A       26  26 100 S2         N/A
* ROGERS PASS  N/A       26  24  92 N/A        N/A
* SAINT MARY   N/A       28  23  81 S4         N/A
* SWEET GRASS  N/A       27  27 100 S6         N/A   WCI  20
$$

MTZ011-013-016-021-035-040-045-047-050-051-261200-
NORTH CENTRAL MONTANA
CITY           SKY/WX    TMP DP  RH WIND       PRES   REMARKS
HAVRE          LGT SNOW  27  25  92 CALM      30.20R VSB 2 1/2
LEWISTOWN      LGT SNOW  27  25  92 SW5       30.13F VSB 2    WCI  21
* N BAR RANCH  CLOUDY    25  21  85 CALM      30.12F
* CHESTER      N/A       28  26  92 N/A        N/A
* DENTON       N/A       28  26  92 S4         N/A
* GEYSER       N/A       26  24  92 SE4        N/A
* JUDITH GAP   N/A       23  23 100 SE2        N/A
* LOMA         N/A       29  27  92 NE2        N/A
$$

MTZ017>020-022>027-061-062-261200-
NORTHEAST MONTANA
CITY           SKY/WX    TMP DP  RH WIND       PRES   REMARKS
GLASGOW        CLOUDY    21  16  81 SE3       30.22S
GLENDIVE       CLOUDY    23  19  85 CALM      30.21S
JORDAN         CLOUDY    27  23  85 E3        30.18F
SIDNEY         CLOUDY    19  16  88 N7        30.25S VSB 1 3/4 WCI  10
WOLF POINT     CLOUDY    21  16  81 NE6       30.24F WCI  13
* BEAVER HILL  N/A       20  18  92 NW5        N/A   WCI  13
* CIRCLE       N/A       23  20  88 N/A        N/A
* LINDSAY DVD  N/A       20  19  96 W6         N/A   WCI  12
* NAVAJO       N/A       11   8  88 N8         N/A   WCI  -1
* SACO         N/A       23  19  85 E5         N/A   WCI  16
$$

MTZ028>042-056>058-261200-
SOUTHCENTRAL AND SOUTHEAST MONTANA
CITY           SKY/WX    TMP DP  RH WIND       PRES   REMARKS
BAKER          CLOUDY    25  21  85 NW7       30.17S WCI  17
BILLINGS       LGT SNOW  28  28 100 SW6       30.17S VSB 1 1/2 WCI  21
LIVINGSTON     LGT SNOW  27  25  92 E5        30.11S VSB 1    WCI  21
MILES CITY     CLOUDY    28  25  89 CALM      30.19R
* LAUREL APT   CLOUDY    28  19  69 N/A        N/A
* ALZADA       N/A       23  22  96 W2         N/A
* HYSHAM       N/A       28  23  81 NW2        N/A
* REED POINT   N/A       28  27  96 E1         N/A
* ROSCOE HILL  N/A       22  19  88 SE5        N/A   WCI  15
$$

REGIONAL REPORTS...DAKOTAS
CITY           SKY/WX    TMP DP  RH WIND       PRES   REMARKS
WILLISTON      LGT SNOW  16  10  77 N10       30.25S WCI   4
DICKINSON      CLOUDY    19  16  88 CALM      30.16F
BEACH          CLOUDY    19  19 100 NW6       30.19R WCI  11
CROSBY         LGT SNOW   7   5  91 N9        30.28S WCI  -6
BISMARCK       CLOUDY     9   1  70 N10       30.29R WCI  -5
GRAND FORKS    MOCLDY     0  -6  75 N16       30.30R WCI -20
FARGO          HAZE      10   5  80 N18       30.23R WCI  -8
BUFFALO SD     CLOUDY    25  18  75 N7        30.09F WCI  17
RAPID CITY     CLOUDY    25  21  85 N14       30.17R WCI  13
$$

REGIONAL REPORTS...WYOMING/IDAHO/WASHINGTON
CITY           SKY/WX    TMP DP  RH WIND       PRES   REMARKS
GILLETTE       FOG       27  23  85 W7        30.14F WCI  19
SHERIDAN       CLOUDY    28  21  75 W8        30.15F WCI  20
CODY           CLOUDY    25  23  92 S6        30.11F WCI  18
YELLOWSTONE LA MOCLDY    32  28  85 VRB6G20   30.08F WCI  26
SALMON         CLOUDY    32  30  92 CALM      30.15R VSB M1/4
MULLAN PASS    LGT SNOW  34  30  85 VRB7G20   30.06S VSB 1/2  WCI  28
SAND POINT     N/A       32  32 100 NE3       30.19R
SPOKANE        FOG       34  34 100 NE5       30.16R VSB M1/4 WCI  29
$$

REGIONAL REPORTS...ALBERTA
CITY           SKY/WX    TMP DP  RH WIND       PRES   REMARKS
LETHBRIDGE     FOG       27  27 100 E7        30.14F WCI  19

$$




USA.gov is the U.S. government's official web portal to all federal, state and local government web resources and services.